Flag for China Weather past 2 weeks in Lanchow, China

Now
46 °F

Light rain. Overcast.


Feels Like: 41 °F
Forecast: 46 / 54 °F
Wind: 10 mph from Northeast

Location: Lanzhou / Zhongchuan


UV Index: 0 (Low)

Visibility: 4 mi


Pressure: 30.01 "Hg

Humidity: 87%

Dew point: 43 °F

Location of LanchowLocation

Historic Weather in Lanchow

°F

Lanchow temperature yesterday

Maximum temperature yesterday: 50 °F (at 3:00 PM)
Minimum temperature yesterday: 45 °F (at 9:00 AM)
Average temperature yesterday: 47 °F

Past Weeks' High & Low Weather Summary

 TemperatureHumidityPressure
High75 °F (Apr 8, 5:00 PM)100% (Apr 15, 5:00 AM)30.36 "Hg (Apr 15, 5:00 AM)
Low28 °F (Apr 4, 7:00 AM)6% (Apr 8, 5:00 PM)29.74 "Hg (Apr 14, 5:00 PM)
Average50 °F55%30.03 "Hg
* Reported Apr 3 2:00 AM — Apr 18 2:00 AM, Lanchow, Weather by CustomWeather, © 2014

Note: Actual official high and low records may vary slightly from our data, if they occured in-between our weather recording intervals... More about our weather records

Advertising

Historic Weather Conditions — Data for Previous 24 hours

 ConditionsComfort  
Time TempWeatherWind HumidityBarometerVisibility
2:00 AM
Apr 18
46 °FLight rain. Partly cloudy.13 mph82%29.98 "HgN/A
1:00 AM48 °FLight rain. Partly cloudy.15 mph76%30.01 "HgN/A
12:00 AM48 °FPartly cloudy.8 mph76%30.04 "HgN/A
11:00 PM
Apr 17
48 °FOvercast.6 mph76%30.07 "HgN/A
10:00 PM48 °FOvercast.3 mph76%30.07 "HgN/A
9:00 PM48 °FOvercast.3 mph76%30.04 "HgN/A
8:00 PM48 °FOvercast.6 mph76%30.01 "HgN/A
7:00 PM50 °FPartly sunny.6 mph71%29.98 "HgN/A
6:00 PM50 °FPartly sunny.6 mph71%29.98 "HgN/A
5:00 PM50 °FBroken clouds.8 mph71%29.95 "HgN/A
4:00 PM50 °FBroken clouds.6 mph67%29.95 "HgN/A
3:00 PM50 °FScattered clouds.6 mph62%29.98 "HgN/A
2:00 PM48 °FOvercast.6 mph66%30.01 "HgN/A
1:00 PM46 °FOvercast.8 mph76%30.01 "HgN/A
12:00 PM46 °FOvercast.8 mph71%30.04 "HgN/A
11:00 AM45 °FLight rain. Overcast.8 mph76%30.04 "HgN/A
10:00 AM45 °FLight rain. Overcast.13 mph76%30.01 "HgN/A
9:00 AM45 °FLight rain. Overcast.17 mph76%29.98 "HgN/A
8:00 AM46 °FLight rain. Overcast.15 mph71%29.92 "HgN/A
7:00 AM46 °FOvercast.6 mph71%29.89 "HgN/A
6:00 AM46 °FOvercast.3 mph71%29.89 "HgN/A
5:00 AM46 °FOvercast.3 mph76%29.89 "HgN/A
4:00 AM46 °FPassing clouds.1 mph71%29.89 "HgN/A
3:00 AM46 °FPassing clouds.6 mph76%29.89 "HgN/A
Weather by CustomWeather, © 2014

See weather overview